EW2348 Weather Reports


Display with metric or nautical units.
time (UTC)temp
F
wind
direction
speed
MPH
gust
MPH
rain 1hr
in
rain 24hr
in
rain mn
in
humidity
%
barometer
mb
20160208015940 45 79 5.0 11.0 0.00 0.00 0.00 31 1005.3
20160208015741 45 80 5.0 11.0 0.00 0.00 0.00 31 1005.3
20160208015540 46 87 4.0 11.0 0.00 0.00 0.00 31 1005.4
20160208015440 46 85 5.0 11.0 0.00 0.00 0.00 31 1005.4
20160208015141 45 82 5.0 9.0 0.00 0.00 0.00 29 1005.6
20160208015040 45 84 4.0 9.0 0.00 0.00 0.00 31 1005.4
20160208014940 45 86 3.0 9.0 0.00 0.00 0.00 31 1005.4
20160208014541 45 88 3.0 9.0 0.00 0.00 0.00 31 1005.3
20160208014441 45 88 3.0 9.0 0.00 0.00 0.00 31 1005.4
20160208014041 45 76 4.0 8.0 0.00 0.00 0.00 31 1005.5
20160208013840 46 77 5.0 8.0 0.00 0.00 0.00 30 1005.6
20160208013741 46 76 4.0 8.0 0.00 0.00 0.00 30 1005.5
20160208013641 46 78 3.0 8.0 0.00 0.00 0.00 30 1005.8
20160208013140 46 87 5.0 9.0 0.00 0.00 0.00 30 1005.6
20160208012941 46 93 5.0 9.0 0.00 0.00 0.00 30 1005.7
20160208012841 46 92 3.0 9.0 0.00 0.00 0.00 30 1005.7
20160208012541 45 88 4.0 9.0 0.00 0.00 0.00 31 1005.7
20160208012441 46 88 4.0 9.0 0.00 0.00 0.00 30 1005.5
20160208012140 45 82 7.0 9.0 0.00 0.00 0.00 30 1005.8
20160208012040 45 79 2.0 7.0 0.00 0.00 0.00 30 1005.7
20160208011941 45 80 2.0 7.0 0.00 0.00 0.00 29 1005.5
20160208011541 46 81 5.0 9.0 0.00 0.00 0.00 29 1006.0
20160208011341 46 80 5.0 9.0 0.00 0.00 0.00 29 1005.8
20160208011140 46 84 4.0 9.0 0.00 0.00 0.00 29 1005.9
20160208011040 46 86 5.0 9.0 0.00 0.00 0.00 29 1005.9
20160208010941 45 86 4.0 9.0 0.00 0.00 0.00 29 1006.0
20160208010740 46 91 5.0 9.0 0.00 0.00 0.00 29 1005.9
20160208010542 46 86 3.0 7.0 0.00 0.00 0.00 29 1005.9
20160208010441 46 82 3.0 7.0 0.00 0.00 0.00 29 1005.9
20160208010140 46 79 4.0 7.0 0.00 0.00 0.00 28 1006.0
20160208010041 46 78 4.0 7.0 0.00 0.00 0.00 28 1006.1
20160208005941 46 72 3.0 7.0 0.00 0.00 0.00 28 1006.0
20160208005841 46 67 3.0 7.0 0.00 0.00 0.00 28 1006.0
20160208005740 46 67 4.0 7.0 0.00 0.00 0.00 28 1005.8
20160208005340 46 73 5.0 7.0 0.00 0.00 0.00 29 1005.9
20160208005240 45 69 3.0 7.0 0.00 0.00 0.00 29 1005.8
20160208005141 46 67 3.0 7.0 0.00 0.00 0.00 29 1006.0
20160208005041 46 65 5.0 7.0 0.00 0.00 0.00 29 1006.1
20160208004941 46 71 5.0 7.0 0.00 0.00 0.00 29 1006.0
20160208004840 46 73 4.0 6.0 0.00 0.00 0.00 29 1005.9
20160208004641 46 69 3.0 6.0 0.00 0.00 0.00 29 1006.0
20160208004441 46 63 3.0 6.0 0.00 0.00 0.00 28 1005.9
20160208003540 46 73 3.0 6.0 0.00 0.00 0.00 27 1006.2
20160208003241 46 83 3.0 6.0 0.00 0.00 0.00 29 1006.4
20160208003140 46 81 3.0 6.0 0.00 0.00 0.00 27 1006.2
20160208003040 46 79 3.0 6.0 0.00 0.00 0.00 27 1006.5
20160208002841 46 77 3.0 6.0 0.00 0.00 0.00 27 1006.4
20160208002741 46 75 3.0 6.0 0.00 0.00 0.00 29 1006.6
20160208002640 46 72 3.0 6.0 0.00 0.00 0.00 29 1006.3
20160208002540 47 70 3.0 6.0 0.00 0.00 0.00 29 1006.4
20160208002440 46 66 3.0 5.0 0.00 0.00 0.00 27 1006.4
20160208002241 46 67 3.0 5.0 0.00 0.00 0.00 27 1006.4
20160208001640 47 79 3.0 6.0 0.00 0.00 0.00 28 1006.5
20160208001441 47 86 3.0 6.0 0.00 0.00 0.00 28 1006.4
20160208001340 47 86 3.0 6.0 0.00 0.00 0.00 28 1006.5
20160208001240 47 87 3.0 6.0 0.00 0.00 0.00 28 1006.8
20160208001140 47 87 3.0 6.0 0.00 0.00 0.00 28 1006.5
20160208000941 47 89 3.0 5.0 0.00 0.00 0.00 28 1006.5
20160208000841 47 90 3.0 5.0 0.00 0.00 0.00 28 1006.5
20160208000740 48 90 3.0 5.0 0.00 0.00 0.00 27 1006.6
20160208000641 48 87 3.0 5.0 0.00 0.00 0.00 27 1006.6
20160208000541 48 87 3.0 6.0 0.00 0.00 0.00 27 1006.6
20160208000340 48 83 3.0 6.0 0.00 0.00 0.00 27 1006.7
20160207235941 47 82 3.0 6.0 0.00 0.00 0.00 27 1006.6
20160207235741 48 83 3.0 6.0 0.00 0.00 0.00 27 1006.6
20160207235641 48 86 4.0 7.0 0.00 0.00 0.00 27 1006.5
20160207235440 47 90 3.0 7.0 0.00 0.00 0.00 27 1006.6
20160207235241 47 90 3.0 7.0 0.00 0.00 0.00 27 1006.7
20160207235141 48 90 4.0 7.0 0.00 0.00 0.00 27 1006.6
20160207234940 48 90 2.0 7.0 0.00 0.00 0.00 27 1006.5
20160207234841 48 90 3.0 7.0 0.00 0.00 0.00 27 1006.6
20160207234740 48 90 4.0 7.0 0.00 0.00 0.00 27 1006.6
20160207234440 48 89 3.0 7.0 0.00 0.00 0.00 26 1006.6
20160207234341 48 88 3.0 7.0 0.00 0.00 0.00 26 1006.5
20160207234241 48 89 5.0 7.0 0.00 0.00 0.00 27 1006.8
20160207234040 48 91 3.0 7.0 0.00 0.00 0.00 27 1006.6
20160207233940 48 90 3.0 7.0 0.00 0.00 0.00 26 1006.5
20160207233841 48 90 6.0 7.0 0.00 0.00 0.00 27 1006.6
20160207233440 48 89 4.0 6.0 0.00 0.00 0.00 26 1006.6
20160207233341 48 90 4.0 5.0 0.00 0.00 0.00 26 1006.8
20160207233241 48 90 3.0 5.0 0.00 0.00 0.00 25 1006.7
20160207233141 48 90 4.0 5.0 0.00 0.00 0.00 25 1006.6
20160207232940 48 95 5.0 7.0 0.00 0.00 0.00 25 1006.6
20160207232840 48 95 3.0 7.0 0.00 0.00 0.00 25 1006.6
20160207232641 48 94 3.0 7.0 0.00 0.00 0.00 26 1006.6
20160207232540 48 98 3.0 7.0 0.00 0.00 0.00 25 1006.7
20160207232240 49 104 4.0 8.0 0.00 0.00 0.00 25 1006.7
20160207231940 49 92 3.0 9.0 0.00 0.00 0.00 25 1006.7
20160207231741 49 90 3.0 9.0 0.00 0.00 0.00 25 1006.6
20160207231640 49 92 3.0 9.0 0.00 0.00 0.00 25 1006.7
20160207231540 49 92 3.0 9.0 0.00 0.00 0.00 25 1006.5
20160207231341 49 92 2.0 9.0 0.00 0.00 0.00 25 1006.6
20160207231241 49 94 5.0 9.0 0.00 0.00 0.00 25 1006.7
20160207231140 49 97 3.0 9.0 0.00 0.00 0.00 25 1006.5
20160207230941 49 105 6.0 9.0 0.00 0.00 0.00 25 1006.4
20160207230540 50 102 5.0 9.0 0.00 0.00 0.00 25 1006.3
20160207230441 50 102 4.0 9.0 0.00 0.00 0.00 25 1006.5
20160207230341 49 98 5.0 9.0 0.00 0.00 0.00 25 1006.6
20160207230240 49 95 5.0 9.0 0.00 0.00 0.00 25 1006.4
20160207230041 50 92 5.0 9.0 0.00 0.00 0.00 25 1006.5
20160207225941 50 94 5.0 8.0 0.00 0.00 0.00 25 1006.7
20160207225640 50 98 3.0 7.0 0.00 0.00 0.00 24 1006.5
20160207225541 50 107 2.0 7.0 0.00 0.00 0.00 23 1006.5
20160207225340 50 118 3.0 9.0 0.00 0.00 0.00 23 1006.5
20160207225240 50 121 2.0 9.0 0.00 0.00 0.00 23 1006.7
20160207225140 50 122 3.0 9.0 0.00 0.00 0.00 23 1006.5
20160207225041 50 119 4.0 9.0 0.00 0.00 0.00 23 1006.6
20160207224941 50 114 3.0 9.0 0.00 0.00 0.00 23 1006.8
20160207224640 51 114 4.0 9.0 0.00 0.00 0.00 23 1006.6
20160207224341 51 109 6.0 9.0 0.00 0.00 0.00 23 1006.6
20160207223941 50 111 5.0 12.0 0.00 0.00 0.00 23 1006.8
20160207223740 51 112 5.0 12.0 0.00 0.00 0.00 23 1006.8
20160207223440 51 111 7.0 12.0 0.00 0.00 0.00 23 1006.7
20160207223341 51 113 4.0 12.0 0.00 0.00 0.00 23 1006.6
20160207223040 51 119 7.0 12.0 0.00 0.00 0.00 23 1006.8
20160207222841 50 126 8.0 13.0 0.00 0.00 0.00 23 1006.9
20160207222740 51 125 6.0 16.0 0.00 0.00 0.00 23 1006.6
20160207222441 51 120 9.0 16.0 0.00 0.00 0.00 23 1006.7
20160207222341 51 120 8.0 16.0 0.00 0.00 0.00 23 1006.6
20160207222040 51 117 6.0 17.0 0.00 0.00 0.00 23 1006.7
20160207221640 51 116 9.0 17.0 0.00 0.00 0.00 23 1006.9
20160207221540 51 120 13.0 17.0 0.00 0.00 0.00 23 1006.7
20160207221341 51 118 7.0 17.0 0.00 0.00 0.00 23 1006.9
20160207221040 51 125 7.0 13.0 0.00 0.00 0.00 23 1006.9
20160207220841 51 130 5.0 12.0 0.00 0.00 0.00 23 1007.0
20160207220741 52 127 5.0 13.0 0.00 0.00 0.00 22 1006.9
20160207220540 52 117 5.0 13.0 0.00 0.00 0.00 22 1006.9
20160207220440 52 115 5.0 13.0 0.00 0.00 0.00 22 1006.8
20160207220140 52 108 5.0 17.0 0.00 0.00 0.00 22 1007.1
20160207215841 52 102 9.0 17.0 0.00 0.00 0.00 22 1006.9
20160207215540 52 109 7.0 17.0 0.00 0.00 0.00 22 1007.0
20160207215340 52 108 11.0 17.0 0.00 0.00 0.00 22 1006.8
20160207215040 53 110 6.0 16.0 0.00 0.00 0.00 22 1007.0
20160207214940 53 112 7.0 16.0 0.00 0.00 0.00 22 1006.9
20160207214741 53 115 11.0 16.0 0.00 0.00 0.00 21 1007.2
20160207214641 53 116 9.0 15.0 0.00 0.00 0.00 22 1007.2
20160207214540 53 112 12.0 16.0 0.00 0.00 0.00 22 1007.2
20160207214440 53 111 7.0 16.0 0.00 0.00 0.00 22 1007.3
20160207214340 53 111 9.0 16.0 0.00 0.00 0.00 22 1007.2
20160207213940 53 120 10.0 18.0 0.00 0.00 0.00 22 1007.4
20160207213841 53 124 10.0 18.0 0.00 0.00 0.00 22 1007.3
20160207213640 53 120 11.0 18.0 0.00 0.00 0.00 22 1007.5
20160207213440 53 117 7.0 18.0 0.00 0.00 0.00 21 1007.4
20160207213340 53 121 7.0 18.0 0.00 0.00 0.00 22 1007.5
20160207213141 53 126 10.0 18.0 0.00 0.00 0.00 22 1007.5
20160207212940 53 123 11.0 17.0 0.00 0.00 0.00 22 1007.5
20160207212840 53 121 7.0 13.0 0.00 0.00 0.00 22 1007.5
20160207212641 53 119 9.0 13.0 0.00 0.00 0.00 22 1007.3
20160207212440 52 122 5.0 16.0 0.00 0.00 0.00 22 1007.4
20160207212340 52 123 5.0 16.0 0.00 0.00 0.00 22 1007.5
20160207212241 52 124 8.0 17.0 0.00 0.00 0.00 22 1007.4
20160207212041 52 133 6.0 21.0 0.00 0.00 0.00 22 1007.3
20160207211840 52 131 10.0 21.0 0.00 0.00 0.00 22 1007.4
20160207211641 52 145 10.0 21.0 0.00 0.00 0.00 22 1007.4
20160207211141 52 130 13.0 21.0 0.00 0.00 0.00 22 1007.3
20160207211041 52 120 15.0 19.0 0.00 0.00 0.00 22 1007.3
20160207210940 52 117 11.0 19.0 0.00 0.00 0.00 22 1007.5
20160207210541 52 103 11.0 19.0 0.00 0.00 0.00 22 1007.2
20160207210440 52 102 13.0 19.0 0.00 0.00 0.00 22 1007.3
20160207210340 53 102 12.0 19.0 0.00 0.00 0.00 22 1007.4
20160207210240 52 104 11.0 19.0 0.00 0.00 0.00 22 1007.4
20160207210040 53 107 12.0 19.0 0.00 0.00 0.00 22 1007.4
20160207205940 53 111 11.0 19.0 0.00 0.00 0.00 22 1007.3
20160207205840 53 106 6.0 19.0 0.00 0.00 0.00 22 1007.5
20160207205740 53 104 6.0 19.0 0.00 0.00 0.00 22 1007.4
20160207205641 53 104 7.0 19.0 0.00 0.00 0.00 22 1007.4
20160207205340 54 118 10.0 19.0 0.00 0.00 0.00 21 1007.4
20160207205240 54 126 9.0 22.0 0.00 0.00 0.00 20 1007.3
20160207205141 53 122 13.0 22.0 0.00 0.00 0.00 21 1007.5
20160207204441 53 126 11.0 22.0 0.00 0.00 0.00 22 1007.3
20160207204340 53 123 15.0 22.0 0.00 0.00 0.00 22 1007.5
20160207204240 53 117 12.0 22.0 0.00 0.00 0.00 22 1007.4
20160207204140 53 114 10.0 18.0 0.00 0.00 0.00 22 1007.5
20160207204041 53 108 11.0 18.0 0.00 0.00 0.00 22 1007.4
20160207203740 53 102 12.0 17.0 0.00 0.00 0.00 22 1007.7
20160207203640 52 104 9.0 24.0 0.00 0.00 0.00 22 1007.6
20160207203541 53 106 11.0 24.0 0.00 0.00 0.00 22 1007.7
20160207203441 53 107 8.0 24.0 0.00 0.00 0.00 22 1007.8
20160207203340 53 111 7.0 24.0 0.00 0.00 0.00 22 1007.5
20160207203140 52 115 10.0 24.0 0.00 0.00 0.00 22 1007.6
20160207203041 52 121 11.0 24.0 0.00 0.00 0.00 23 1007.7
20160207202740 52 118 12.0 24.0 0.00 0.00 0.00 22 1007.6
20160207202540 53 119 11.0 24.0 0.00 0.00 0.00 22 1007.6
20160207202441 53 120 13.0 24.0 0.00 0.00 0.00 22 1007.9
20160207202341 53 120 9.0 24.0 0.00 0.00 0.00 22 1008.0
20160207202240 53 119 8.0 24.0 0.00 0.00 0.00 22 1007.8
20160207202141 53 118 10.0 24.0 0.00 0.00 0.00 22 1007.7
20160207202040 53 117 11.0 24.0 0.00 0.00 0.00 22 1007.5
20160207201741 53 119 11.0 21.0 0.00 0.00 0.00 22 1008.0
20160207201640 53 118 12.0 21.0 0.00 0.00 0.00 22 1007.6
20160207201441 53 112 10.0 21.0 0.00 0.00 0.00 22 1007.9
20160207201240 54 106 9.0 21.0 0.00 0.00 0.00 21 1007.9
20160207201040 53 97 11.0 21.0 0.00 0.00 0.00 22 1008.0
20160207200941 53 95 11.0 21.0 0.00 0.00 0.00 22 1007.9
20160207200740 53 96 10.0 19.0 0.00 0.00 0.00 22 1007.9
20160207200640 53 98 10.0 19.0 0.00 0.00 0.00 22 1008.1
20160207200440 53 99 10.0 19.0 0.00 0.00 0.00 22 1008.1
20160207200240 53 110 10.0 19.0 0.00 0.00 0.00 22 1008.0
20160207200040 53 119 10.0 20.0 0.00 0.00 0.00 22 1008.0
20160207195940 53 124 14.0 20.0 0.00 0.00 0.00 22 1008.1
20160207195841 53 128 12.0 20.0 0.00 0.00 0.00 22 1008.1
20160207195640 55 128 12.0 20.0 0.00 0.00 0.00 21 1008.2
20160207195540 54 131 5.0 20.0 0.00 0.00 0.00 21 1008.2
20160207195340 54 133 9.0 20.0 0.00 0.00 0.00 21 1008.2
20160207195241 53 128 9.0 20.0 0.00 0.00 0.00 22 1008.2
20160207195140 53 126 15.0 20.0 0.00 0.00 0.00 22 1008.2
20160207195040 53 125 14.0 20.0 0.00 0.00 0.00 22 1008.4
20160207194940 53 120 10.0 18.0 0.00 0.00 0.00 22 1008.3
20160207194841 53 115 11.0 18.0 0.00 0.00 0.00 22 1008.3
20160207194640 53 109 7.0 21.0 0.00 0.00 0.00 22 1008.4
20160207194540 53 106 9.0 21.0 0.00 0.00 0.00 22 1008.4
20160207194341 54 106 11.0 21.0 0.00 0.00 0.00 21 1008.3
20160207194240 54 108 11.0 21.0 0.00 0.00 0.00 21 1008.4
20160207194140 53 113 9.0 21.0 0.00 0.00 0.00 22 1008.3
20160207193640 54 125 9.0 19.0 0.00 0.00 0.00 21 1008.5
20160207193440 53 121 11.0 20.0 0.00 0.00 0.00 22 1008.7
20160207193340 53 119 8.0 20.0 0.00 0.00 0.00 22 1008.6
20160207193040 53 114 9.0 20.0 0.00 0.00 0.00 22 1008.8
20160207192840 53 119 8.0 20.0 0.00 0.00 0.00 22 1008.9
20160207192440 52 118 12.0 23.0 0.00 0.00 0.00 22 1008.8
20160207192340 53 116 11.0 23.0 0.00 0.00 0.00 22 1008.8
20160207192241 53 112 7.0 23.0 0.00 0.00 0.00 22 1008.8
20160207192141 53 114 10.0 23.0 0.00 0.00 0.00 22 1008.8
20160207192040 53 108 9.0 23.0 0.00 0.00 0.00 22 1009.1
20160207191840 53 101 9.0 23.0 0.00 0.00 0.00 22 1008.9
20160207191641 53 113 16.0 23.0 0.00 0.00 0.00 22 1008.9
20160207191541 53 108 14.0 22.0 0.00 0.00 0.00 22 1009.0
20160207191440 53 109 9.0 22.0 0.00 0.00 0.00 22 1009.1
20160207191340 53 109 12.0 22.0 0.00 0.00 0.00 22 1009.2
20160207190940 53 130 7.0 21.0 0.00 0.00 0.00 22 1009.1
20160207190840 54 133 10.0 21.0 0.00 0.00 0.00 21 1009.0
20160207190741 54 127 9.0 21.0 0.00 0.00 0.00 21 1009.3
20160207190641 54 122 4.0 21.0 0.00 0.00 0.00 21 1009.2
20160207190540 54 124 8.0 21.0 0.00 0.00 0.00 21 1009.3
20160207190340 53 125 7.0 21.0 0.00 0.00 0.00 22 1009.5
20160207190241 53 119 13.0 21.0 0.00 0.00 0.00 23 1009.2
20160207185840 53 109 8.0 19.0 0.00 0.00 0.00 22 1009.4
20160207185540 53 110 7.0 21.0 0.00 0.00 0.00 22 1009.4
20160207185340 52 107 6.0 21.0 0.00 0.00 0.00 22 1009.5
20160207184740 52 105 11.0 18.0 0.00 0.00 0.00 22 1009.8
20160207184640 52 108 12.0 18.0 0.00 0.00 0.00 22 1009.8
20160207184341 52 111 8.0 18.0 0.00 0.00 0.00 22 1009.8
20160207184240 52 112 11.0 18.0 0.00 0.00 0.00 22 1009.8
20160207184140 52 110 9.0 18.0 0.00 0.00 0.00 22 1009.8
20160207183940 52 105 7.0 18.0 0.00 0.00 0.00 23 1009.9
20160207183440 52 108 7.0 19.0 0.00 0.00 0.00 23 1010.0
20160207183341 51 112 8.0 19.0 0.00 0.00 0.00 23 1010.1
20160207183240 52 112 12.0 19.0 0.00 0.00 0.00 22 1010.0
20160207183140 52 115 7.0 19.0 0.00 0.00 0.00 22 1010.1
20160207182841 52 120 11.0 19.0 0.00 0.00 0.00 23 1010.2
20160207182641 51 123 8.0 19.0 0.00 0.00 0.00 23 1010.1
20160207182540 52 118 13.0 19.0 0.00 0.00 0.00 23 1010.3
20160207182440 53 111 9.0 15.0 0.00 0.00 0.00 22 1010.2
20160207182241 52 104 7.0 15.0 0.00 0.00 0.00 22 1010.4
20160207182140 52 106 8.0 15.0 0.00 0.00 0.00 23 1010.3
20160207181940 52 105 7.0 15.0 0.00 0.00 0.00 22 1010.3
20160207181840 52 101 7.0 15.0 0.00 0.00 0.00 23 1010.5
20160207181741 52 102 10.0 15.0 0.00 0.00 0.00 22 1010.3
20160207181640 51 102 7.0 15.0 0.00 0.00 0.00 23 1010.5
20160207181341 52 99 11.0 15.0 0.00 0.00 0.00 23 1010.5
20160207181040 51 94 11.0 15.0 0.00 0.00 0.00 23 1010.5
20160207180940 51 93 9.0 16.0 0.00 0.00 0.00 23 1010.6
20160207180640 50 100 11.0 16.0 0.00 0.00 0.00 23 1010.6
20160207180540 50 100 11.0 19.0 0.00 0.00 0.00 23 1010.6
20160207180440 50 102 11.0 19.0 0.00 0.00 0.00 23 1010.7
20160207180340 50 107 11.0 19.0 0.00 0.00 0.00 23 1010.8
20160207180241 50 112 11.0 19.0 0.00 0.00 0.00 23 1010.8
20160207175741 50 120 13.0 19.0 0.00 0.00 0.00 23 1010.8
20160207175640 51 124 13.0 19.0 0.00 0.00 0.00 24 1010.9
20160207175240 51 126 7.0 16.0 0.00 0.00 0.00 24 1011.1
20160207175040 51 129 9.0 16.0 0.00 0.00 0.00 24 1011.2
20160207174840 50 123 8.0 16.0 0.00 0.00 0.00 24 1011.4
20160207174740 50 120 8.0 16.0 0.00 0.00 0.00 24 1011.4
20160207174641 51 119 11.0 16.0 0.00 0.00 0.00 24 1011.2
20160207174540 51 115 7.0 16.0 0.00 0.00 0.00 24 1011.4
20160207174440 50 111 7.0 16.0 0.00 0.00 0.00 24 1011.4
20160207174340 50 111 9.0 16.0 0.00 0.00 0.00 24 1011.5
20160207174241 50 110 12.0 16.0 0.00 0.00 0.00 24 1011.5
20160207174140 51 112 9.0 17.0 0.00 0.00 0.00 24 1011.5
20160207173940 50 109 8.0 17.0 0.00 0.00 0.00 25 1011.7
20160207173741 50 114 10.0 17.0 0.00 0.00 0.00 24 1011.5
20160207173440 50 116 9.0 17.0 0.00 0.00 0.00 24 1011.8
20160207173340 50 116 9.0 17.0 0.00 0.00 0.00 24 1011.8
20160207173241 50 123 11.0 17.0 0.00 0.00 0.00 24 1011.8
20160207173140 51 122 6.0 18.0 0.00 0.00 0.00 24 1011.8
20160207173040 50 122 8.0 18.0 0.00 0.00 0.00 24 1011.8
20160207172940 51 117 9.0 18.0 0.00 0.00 0.00 24 1011.9
20160207172740 51 114 5.0 18.0 0.00 0.00 0.00 24 1012.0
20160207172540 50 117 11.0 18.0 0.00 0.00 0.00 25 1012.0
20160207172240 50 109 8.0 18.0 0.00 0.00 0.00 24 1012.2
20160207172041 51 106 9.0 15.0 0.00 0.00 0.00 24 1012.2
20160207171740 50 113 7.0 15.0 0.00 0.00 0.00 24 1012.1
20160207171640 51 114 9.0 15.0 0.00 0.00 0.00 25 1012.0
20160207171540 50 113 8.0 13.0 0.00 0.00 0.00 25 1012.0
20160207171440 51 114 6.0 13.0 0.00 0.00 0.00 25 1012.1
20160207171340 50 110 6.0 13.0 0.00 0.00 0.00 25 1012.2
20160207171240 50 110 4.0 13.0 0.00 0.00 0.00 25 1012.2
20160207171140 50 109 7.0 13.0 0.00 0.00 0.00 25 1012.4
20160207170941 50 115 9.0 13.0 0.00 0.00 0.00 27 1012.2
20160207170840 50 113 10.0 13.0 0.00 0.00 0.00 26 1012.2
20160207170740 51 109 5.0 14.0 0.00 0.00 0.00 28 1012.4
20160207170640 50 104 2.0 14.0 0.00 0.00 0.00 27 1012.4
20160207170541 50 99 5.0 14.0 0.00 0.00 0.00 27 1012.4
20160207170441 50 100 4.0 14.0 0.00 0.00 0.00 28 1012.4
20160207170340 50 101 5.0 14.0 0.00 0.00 0.00 27 1012.5
20160207170140 50 99 6.0 14.0 0.00 0.00 0.00 27 1012.7
20160207170040 49 95 6.0 14.0 0.00 0.00 0.00 27 1012.5
20160207165840 49 88 7.0 14.0 0.00 0.00 0.00 28 1012.6
20160207165440 49 88 5.0 12.0 0.00 0.00 0.00 29 1012.4
20160207165340 49 87 7.0 12.0 0.00 0.00 0.00 29 1012.6
20160207165140 50 96 5.0 12.0 0.00 0.00 0.00 30 1012.7
20160207164940 50 104 5.0 11.0 0.00 0.00 0.00 30 1012.6
20160207164740 49 112 8.0 11.0 0.00 0.00 0.00 31 1012.4
20160207164640 49 113 5.0 11.0 0.00 0.00 0.00 32 1012.6
20160207164241 48 108 8.0 13.0 0.00 0.00 0.00 32 1012.9
20160207164040 48 111 7.0 13.0 0.00 0.00 0.00 32 1012.8
20160207163640 48 110 6.0 13.0 0.00 0.00 0.00 31 1012.6
20160207163540 47 111 9.0 13.0 0.00 0.00 0.00 31 1012.7
20160207163441 47 110 9.0 12.0 0.00 0.00 0.00 32 1012.8
20160207163340 47 111 8.0 11.0 0.00 0.00 0.00 32 1012.6
20160207163240 47 120 7.0 11.0 0.00 0.00 0.00 32 1012.8
20160207163040 49 113 7.0 11.0 0.00 0.00 0.00 34 1013.0
20160207162840 47 115 7.0 11.0 0.00 0.00 0.00 34 1013.0
20160207162740 48 113 7.0 11.0 0.00 0.00 0.00 35 1013.1
20160207162240 48 112 5.0 11.0 0.00 0.00 0.00 36 1012.9
20160207162040 47 114 7.0 11.0 0.00 0.00 0.00 36 1013.0
20160207161940 46 112 5.0 10.0 0.00 0.00 0.00 36 1012.9
20160207161740 47 122 7.0 10.0 0.00 0.00 0.00 37 1013.1
20160207161540 45 118 4.0 10.0 0.00 0.00 0.00 35 1013.2
20160207161341 46 108 7.0 10.0 0.00 0.00 0.00 37 1012.9
20160207161240 46 105 3.0 9.0 0.00 0.00 0.00 37 1012.9
20160207160941 46 99 5.0 9.0 0.00 0.00 0.00 38 1012.9
20160207160840 45 95 3.0 9.0 0.00 0.00 0.00 37 1013.0
20160207160740 45 90 4.0 8.0 0.00 0.00 0.00 39 1013.1
20160207160341 45 90 4.0 9.0 0.00 0.00 0.00 39 1012.9
20160207160240 45 91 4.0 9.0 0.00 0.00 0.00 39 1013.0
20160207160140 45 92 4.0 9.0 0.00 0.00 0.00 39 1013.1
20160207155940 45 98 5.0 9.0 0.00 0.00 0.00 38 1013.1
20160207155839 45 102 5.0 9.0 0.00 0.00 0.00 37 1013.0
20160207155740 44 107 5.0 9.0 0.00 0.00 0.00 38 1012.9
20160207155440 45 113 6.0 9.0 0.00 0.00 0.00 41 1013.0
20160207155341 45 113 4.0 9.0 0.00 0.00 0.00 40 1013.0
20160207155240 44 114 5.0 9.0 0.00 0.00 0.00 40 1013.2
20160207155040 44 116 5.0 10.0 0.00 0.00 0.00 40 1013.2
20160207154540 44 105 5.0 10.0 0.00 0.00 0.00 42 1013.2
20160207154240 43 108 5.0 10.0 0.00 0.00 0.00 40 1013.2
20160207154040 44 105 5.0 10.0 0.00 0.00 0.00 42 1013.0
20160207153940 44 101 5.0 11.0 0.00 0.00 0.00 42 1013.1
20160207153840 43 102 7.0 11.0 0.00 0.00 0.00 42 1013.1
20160207153740 43 108 5.0 11.0 0.00 0.00 0.00 42 1013.4
20160207153640 43 108 7.0 11.0 0.00 0.00 0.00 43 1013.2
20160207153440 43 105 5.0 11.0 0.00 0.00 0.00 42 1013.1
20160207153340 42 107 5.0 11.0 0.00 0.00 0.00 43 1013.2
20160207153140 42 100 6.0 11.0 0.00 0.00 0.00 44 1013.1
20160207152940 43 100 7.0 11.0 0.00 0.00 0.00 44 1013.3
20160207152640 42 97 7.0 11.0 0.00 0.00 0.00 44 1013.0
20160207152541 42 95 6.0 11.0 0.00 0.00 0.00 44 1013.2
20160207152440 42 98 7.0 11.0 0.00 0.00 0.00 45 1013.3
20160207151840 41 95 7.0 11.0 0.00 0.00 0.00 46 1013.3
20160207151740 42 99 8.0 11.0 0.00 0.00 0.00 46 1013.2
20160207151640 42 102 5.0 11.0 0.00 0.00 0.00 46 1013.2
20160207151540 42 100 7.0 11.0 0.00 0.00 0.00 47 1013.5
20160207151440 41 96 5.0 11.0 0.00 0.00 0.00 47 1013.3
20160207151340 41 97 7.0 11.0 0.00 0.00 0.00 48 1013.3
20160207151240 41 100 5.0 11.0 0.00 0.00 0.00 49 1013.4
20160207151141 41 100 7.0 11.0 0.00 0.00 0.00 49 1013.2
20160207150940 41 100 7.0 11.0 0.00 0.00 0.00 49 1013.5
20160207150740 40 99 5.0 11.0 0.00 0.00 0.00 50 1013.5
20160207150640 40 92 5.0 11.0 0.00 0.00 0.00 49 1013.5
20160207150540 40 92 8.0 11.0 0.00 0.00 0.00 50 1013.4
20160207150440 40 92 7.0 11.0 0.00 0.00 0.00 51 1013.4
20160207150240 40 89 5.0 9.0 0.00 0.00 0.00 52 1013.6
20160207150140 40 89 6.0 9.0 0.00 0.00 0.00 53 1013.7
20160207145940 39 86 8.0 9.0 0.00 0.00 0.00 54 1013.6
20160207145640 38 88 5.0 7.0 0.00 0.00 0.00 55 1013.7
20160207145540 38 88 6.0 7.0 0.00 0.00 0.00 56 1013.5
20160207145440 38 88 4.0 7.0 0.00 0.00 0.00 56 1013.6
20160207145340 38 89 4.0 9.0 0.00 0.00 0.00 56 1013.6
20160207145140 38 92 4.0 9.0 0.00 0.00 0.00 57 1013.7
20160207144940 38 97 3.0 9.0 0.00 0.00 0.00 56 1013.7
20160207144740 37 99 5.0 9.0 0.00 0.00 0.00 52 1013.7
20160207144640 37 99 4.0 9.0 0.00 0.00 0.00 52 1013.9
20160207144441 37 99 5.0 9.0 0.00 0.00 0.00 52 1013.8
20160207144340 37 98 7.0 9.0 0.00 0.00 0.00 52 1013.7
20160207144140 37 94 5.0 9.0 0.00 0.00 0.00 52 1013.9
20160207143940 36 90 5.0 8.0 0.00 0.00 0.00 53 1013.8
20160207143840 37 90 6.0 8.0 0.00 0.00 0.00 53 1013.9
20160207143740 37 88 4.0 8.0 0.00 0.00 0.00 53 1013.8
20160207143640 36 88 4.0 8.0 0.00 0.00 0.00 53 1013.8
20160207143539 36 88 5.0 8.0 0.00 0.00 0.00 53 1013.7
20160207143440 36 88 7.0 8.0 0.00 0.00 0.00 54 1013.8
20160207143140 36 88 5.0 8.0 0.00 0.00 0.00 54 1013.8
20160207143040 36 88 4.0 8.0 0.00 0.00 0.00 54 1014.0
20160207142540 35 96 5.0 9.0 0.00 0.00 0.00 55 1014.0
20160207142441 35 96 3.0 9.0 0.00 0.00 0.00 55 1013.9
20160207142240 35 97 5.0 9.0 0.00 0.00 0.00 56 1013.8
20160207142140 35 97 5.0 9.0 0.00 0.00 0.00 56 1014.0
20160207142040 35 95 5.0 9.0 0.00 0.00 0.00 56 1014.0
20160207141740 35 97 5.0 7.0 0.00 0.00 0.00 57 1014.0
20160207141640 35 96 4.0 7.0 0.00 0.00 0.00 57 1014.1
20160207141540 35 91 3.0 7.0 0.00 0.00 0.00 57 1014.1
20160207141341 35 91 4.0 7.0 0.00 0.00 0.00 57 1014.1
20160207141140 34 91 4.0 7.0 0.00 0.00 0.00 57 1014.1
20160207141040 34 93 5.0 7.0 0.00 0.00 0.00 57 1014.2
20160207140940 34 93 3.0 7.0 0.00 0.00 0.00 57 1014.2
20160207140840 34 91 4.0 9.0 0.00 0.00 0.00 58 1014.2
20160207140740 33 83 5.0 9.0 0.00 0.00 0.00 59 1014.1
20160207140640 33 82 5.0 9.0 0.00 0.00 0.00 59 1014.3
20160207140440 33 76 5.0 9.0 0.00 0.00 0.00 59 1014.2
20160207140341 33 74 5.0 9.0 0.00 0.00 0.00 59 1014.4
20160207140041 33 74 5.0 9.0 0.00 0.00 0.00 59 1014.3
20160207135740 33 80 5.0 9.0 0.00 0.00 0.00 61 1014.5
20160207135540 33 86 5.0 7.0 0.00 0.00 0.00 63 1014.4
20160207135440 33 88 5.0 7.0 0.00 0.00 0.00 63 1014.3
20160207135340 33 90 4.0 7.0 0.00 0.00 0.00 63 1014.5
20160207135240 33 90 4.0 7.0 0.00 0.00 0.00 63 1014.4
20160207135042 33 90 3.0 6.0 0.00 0.00 0.00 63 1014.5
20160207134840 32 90 3.0 7.0 0.00 0.00 0.00 63 1014.4
20160207134740 32 90 3.0 7.0 0.00 0.00 0.00 63 1014.4
20160207134641 32 90 3.0 7.0 0.00 0.00 0.00 63 1014.5
20160207134540 32 90 4.0 7.0 0.00 0.00 0.00 63 1014.5
20160207134440 32 90 4.0 7.0 0.00 0.00 0.00 63 1014.5
20160207134240 32 90 3.0 7.0 0.00 0.00 0.00 63 1014.4
20160207134140 32 90 4.0 7.0 0.00 0.00 0.00 63 1014.5
20160207133943 32 87 4.0 7.0 0.00 0.00 0.00 63 1014.6
20160207133842 32 87 5.0 7.0 0.00 0.00 0.00 64 1014.3
20160207133740 32 84 3.0 7.0 0.00 0.00 0.00 65 1014.5
20160207133642 32 84 5.0 7.0 0.00 0.00 0.00 65 1014.6
20160207133540 31 84 5.0 7.0 0.00 0.00 0.00 65 1014.5
20160207133440 31 84 3.0 7.0 0.00 0.00 0.00 65 1014.6
20160207133340 31 85 4.0 7.0 0.00 0.00 0.00 65 1014.5
20160207133240 31 85 3.0 7.0 0.00 0.00 0.00 65 1014.6
20160207133140 31 88 4.0 7.0 0.00 0.00 0.00 65 1014.7
20160207133040 31 91 2.0 7.0 0.00 0.00 0.00 65 1014.5
20160207132941 31 91 3.0 7.0 0.00 0.00 0.00 65 1014.4
20160207132840 31 91 3.0 7.0 0.00 0.00 0.00 65 1014.6
20160207132641 31 90 5.0 7.0 0.00 0.00 0.00 65 1014.5
20160207132441 31 90 3.0 7.0 0.00 0.00 0.00 65 1014.5
20160207132340 31 90 3.0 7.0 0.00 0.00 0.00 65 1014.5
20160207132041 31 82 4.0 7.0 0.00 0.00 0.00 65 1014.4
20160207131640 31 77 4.0 7.0 0.00 0.00 0.00 65 1014.4
20160207131540 31 78 3.0 7.0 0.00 0.00 0.00 65 1014.5
20160207131442 31 78 4.0 7.0 0.00 0.00 0.00 65 1014.3
20160207131340 31 78 4.0 7.0 0.00 0.00 0.00 65 1014.6
20160207131240 31 81 5.0 7.0 0.00 0.00 0.00 64 1014.4
20160207131040 31 82 5.0 7.0 0.00 0.00 0.00 65 1014.4
20160207130940 31 82 5.0 7.0 0.00 0.00 0.00 65 1014.4
20160207130640 31 90 4.0 7.0 0.00 0.00 0.00 64 1014.5
20160207130340 31 90 3.0 7.0 0.00 0.00 0.00 64 1014.3
20160207130240 31 88 3.0 7.0 0.00 0.00 0.00 64 1014.5
20160207130140 31 84 4.0 7.0 0.00 0.00 0.00 64 1014.4
20160207125940 31 80 4.0 7.0 0.00 0.00 0.00 64 1014.4
20160207125840 31 81 4.0 8.0 0.00 0.00 0.00 63 1014.6
20160207125740 31 81 5.0 8.0 0.00 0.00 0.00 64 1014.5
20160207125640 32 81 4.0 8.0 0.00 0.00 0.00 64 1014.5
20160207125540 32 78 4.0 8.0 0.00 0.00 0.00 64 1014.3
20160207125340 32 72 5.0 8.0 0.00 0.00 0.00 64 1014.4
20160207125140 31 75 5.0 8.0 0.00 0.00 0.00 64 1014.6
20160207124940 32 73 5.0 8.0 0.00 0.00 0.00 64 1014.5
20160207124640 31 68 3.0 8.0 0.00 0.00 0.00 63 1014.8
20160207124540 32 70 3.0 8.0 0.00 0.00 0.00 63 1014.8
20160207124240 32 75 3.0 8.0 0.00 0.00 0.00 62 1014.5
20160207124140 32 77 4.0 8.0 0.00 0.00 0.00 60 1014.5
20160207123840 32 88 3.0 6.0 0.00 0.00 0.00 60 1014.6
20160207123640 32 88 4.0 6.0 0.00 0.00 0.00 60 1014.5
20160207123540 32 88 3.0 6.0 0.00 0.00 0.00 60 1014.7
20160207123440 32 84 3.0 6.0 0.00 0.00 0.00 60 1014.4
20160207123340 32 84 5.0 6.0 0.00 0.00 0.00 60 1014.7
20160207123239 32 87 3.0 5.0 0.00 0.00 0.00 59 1014.6
20160207122840 33 87 2.0 5.0 0.00 0.00 0.00 58 1014.5
20160207122641 33 87 3.0 5.0 0.00 0.00 0.00 57 1014.4
20160207122540 33 87 3.0 5.0 0.00 0.00 0.00 57 1014.5
20160207122440 33 90 3.0 5.0 0.00 0.00 0.00 57 1014.2
20160207122340 33 90 2.0 5.0 0.00 0.00 0.00 57 1014.3
20160207122240 33 90 2.0 5.0 0.00 0.00 0.00 57 1014.5
20160207122139 33 90 2.0 5.0 0.00 0.00 0.00 57 1014.4
20160207122040 33 90 3.0 5.0 0.00 0.00 0.00 57 1014.6
20160207121940 33 90 3.0 5.0 0.00 0.00 0.00 57 1014.4
20160207121840 33 93 3.0 5.0 0.00 0.00 0.00 57 1014.3
20160207121740 33 93 2.0 5.0 0.00 0.00 0.00 57 1014.4
20160207121641 33 94 3.0 5.0 0.00 0.00 0.00 56 1014.4
20160207121540 33 94 3.0 5.0 0.00 0.00 0.00 56 1014.4
20160207121440 33 94 2.0 5.0 0.00 0.00 0.00 56 1014.4
20160207121340 33 94 2.0 5.0 0.00 0.00 0.00 56 1014.3
20160207121040 33 94 4.0 5.0 0.00 0.00 0.00 57 1014.5
20160207120840 33 94 3.0 5.0 0.00 0.00 0.00 57 1014.3
20160207120740 33 99 3.0 5.0 0.00 0.00 0.00 58 1014.2
20160207120639 33 105 3.0 5.0 0.00 0.00 0.00 58 1014.4
20160207120440 33 114 3.0 5.0 0.00 0.00 0.00 58 1014.4
20160207120240 33 122 3.0 5.0 0.00 0.00 0.00 58 1014.2
20160207120040 33 131 3.0 5.0 0.00 0.00 0.00 58 1014.2
20160207115840 33 131 3.0 5.0 0.00 0.00 0.00 58 1014.2
20160207115740 33 128 2.0 5.0 0.00 0.00 0.00 58 1014.2
20160207115640 33 127 2.0 4.0 0.00 0.00 0.00 58 1014.3
20160207115540 33 127 2.0 4.0 0.00 0.00 0.00 58 1014.3
20160207115240 33 124 3.0 4.0 0.00 0.00 0.00 59 1014.4
20160207114940 33 124 3.0 4.0 0.00 0.00 0.00 59 1014.3
20160207114540 32 128 2.0 5.0 0.00 0.00 0.00 59 1014.4
20160207114240 33 127 1.0 5.0 0.00 0.00 0.00 59 1014.5
20160207114140 33 124 2.0 5.0 0.00 0.00 0.00 60 1014.4
20160207114039 33 123 3.0 5.0 0.00 0.00 0.00 60 1014.3
20160207113940 32 118 3.0 5.0 0.00 0.00 0.00 59 1014.4
20160207113840 33 117 1.0 5.0 0.00 0.00 0.00 59 1014.4
20160207113640 33 116 3.0 5.0 0.00 0.00 0.00 60 1014.4
20160207113439 33 107 3.0 5.0 0.00 0.00 0.00 60 1014.4
20160207113240 32 104 2.0 5.0 0.00 0.00 0.00 60 1014.3
20160207113140 33 103 2.0 5.0 0.00 0.00 0.00 60 1014.4
20160207113040 32 101 3.0 5.0 0.00 0.00 0.00 60 1014.3
20160207112940 33 100 2.0 5.0 0.00 0.00 0.00 60 1014.5
20160207112839 32 96 2.0 5.0 0.00 0.00 0.00 60 1014.3
20160207112740 32 94 3.0 5.0 0.00 0.00 0.00 60 1014.4
20160207112440 32 94 3.0 5.0 0.00 0.00 0.00 60 1014.3
20160207111940 33 90 2.0 5.0 0.00 0.00 0.00 61 1014.3
20160207111840 33 90 3.0 5.0 0.00 0.00 0.00 61 1014.5
20160207111740 33 90 3.0 5.0 0.00 0.00 0.00 61 1014.3
20160207111540 33 92 3.0 5.0 0.00 0.00 0.00 61 1014.4
20160207111440 33 97 3.0 5.0 0.00 0.00 0.00 61 1014.5
20160207111340 32 97 3.0 5.0 0.00 0.00 0.00 61 1014.4
20160207110740 33 100 3.0 5.0 0.00 0.00 0.00 62 1014.4
20160207110540 32 98 3.0 5.0 0.00 0.00 0.00 62 1014.6
20160207110240 33 91 3.0 5.0 0.00 0.00 0.00 62 1014.5
20160207110140 32 90 3.0 5.0 0.00 0.00 0.00 62 1014.5
20160207110040 32 90 3.0 5.0 0.00 0.00 0.00 62 1014.4
20160207105939 32 90 3.0 5.0 0.00 0.00 0.00 62 1014.5
20160207105740 32 90 3.0 5.0 0.00 0.00 0.00 62 1014.3
20160207105540 33 90 3.0 5.0 0.00 0.00 0.00 62 1014.4
20160207105440 33 90 3.0 5.0 0.00 0.00 0.00 62 1014.6
20160207105340 32 90 4.0 5.0 0.00 0.00 0.00 62 1014.6
20160207105040 32 90 5.0 5.0 0.00 0.00 0.00 62 1014.5
20160207104940 32 90 3.0 5.0 0.00 0.00 0.00 62 1014.5
20160207104740 32 90 3.0 5.0 0.00 0.00 0.00 63 1014.5
20160207104640 32 90 3.0 5.0 0.00 0.00 0.00 63 1014.7
20160207104540 32 90 3.0 5.0 0.00 0.00 0.00 63 1014.6
20160207104440 32 90 4.0 5.0 0.00 0.00 0.00 63 1014.6
20160207104240 32 90 3.0 5.0 0.00 0.00 0.00 63 1014.6
20160207104040 32 90 3.0 5.0 0.00 0.00 0.00 63 1014.7
20160207103940 32 90 3.0 5.0 0.00 0.00 0.00 63 1014.5
20160207103840 32 90 3.0 5.0 0.00 0.00 0.00 63 1014.7
20160207103740 32 90 3.0 5.0 0.00 0.00 0.00 63 1014.6
20160207103640 32 90 2.0 5.0 0.00 0.00 0.00 63 1014.5
20160207103340 32 90 2.0 5.0 0.00 0.00 0.00 62 1015.1
20160207102940 32 90 3.0 5.0 0.00 0.00 0.00 62 1015.0
20160207102839 33 90 3.0 5.0 0.00 0.00 0.00 62 1014.9
20160207102740 33 90 2.0 4.0 0.00 0.00 0.00 62 1014.7
20160207102540 33 90 3.0 5.0 0.00 0.00 0.00 63 1014.8
20160207102340 32 90 2.0 5.0 0.00 0.00 0.00 63 1014.7
20160207102040 32 90 3.0 5.0 0.00 0.00 0.00 63 1014.8
20160207101740 32 90 2.0 5.0 0.00 0.00 0.00 62 1014.9
20160207101640 32 84 3.0 5.0 0.00 0.00 0.00 63 1014.7
20160207101440 32 73 3.0 5.0 0.00 0.00 0.00 63 1014.9
20160207101339 33 68 2.0 5.0 0.00 0.00 0.00 63 1014.8
20160207101240 32 63 2.0 5.0 0.00 0.00 0.00 63 1014.9
20160207101040 32 55 3.0 5.0 0.00 0.00 0.00 63 1014.8
20160207100940 33 52 2.0 5.0 0.00 0.00 0.00 63 1014.8
20160207100839 33 52 3.0 5.0 0.00 0.00 0.00 63 1014.7
20160207100740 32 53 3.0 5.0 0.00 0.00 0.00 63 1014.9
20160207100540 32 60 3.0 5.0 0.00 0.00 0.00 63 1014.8
20160207100040 32 77 3.0 5.0 0.00 0.00 0.00 63 1014.9
20160207095940 32 83 2.0 5.0 0.00 0.00 0.00 63 1015.1
20160207095440 32 74 1.0 5.0 0.00 0.00 0.00 63 1015.3
20160207095240 32 82 2.0 5.0 0.00 0.00 0.00 63 1015.2
20160207095040 32 83 1.0 5.0 0.00 0.00 0.00 63 1015.2
20160207094940 32 83 3.0 5.0 0.00 0.00 0.00 63 1015.1
20160207094840 33 86 3.0 5.0 0.00 0.00 0.00 63 1015.2
20160207094740 32 88 2.0 5.0 0.00 0.00 0.00 63 1015.3
20160207094640 32 90 2.0 5.0 0.00 0.00 0.00 63 1015.3
20160207094540 32 90 3.0 5.0 0.00 0.00 0.00 63 1015.2
20160207094440 32 90 1.0 5.0 0.00 0.00 0.00 63 1015.0
20160207094240 32 90 3.0 5.0 0.00 0.00 0.00 63 1015.2
20160207094140 32 90 2.0 6.0 0.00 0.00 0.00 63 1015.2
20160207094040 33 90 2.0 6.0 0.00 0.00 0.00 63 1015.2
20160207093839 32 90 2.0 6.0 0.00 0.00 0.00 63 1015.3
20160207093640 33 90 1.0 6.0 0.00 0.00 0.00 63 1015.3
20160207093540 33 90 2.0 6.0 0.00 0.00 0.00 63 1015.1
20160207093440 33 90 1.0 6.0 0.00 0.00 0.00 63 1015.2
20160207093340 33 90 2.0 6.0 0.00 0.00 0.00 63 1015.2
20160207093140 33 90 3.0 6.0 0.00 0.00 0.00 63 1015.3
20160207093040 33 90 2.0 5.0 0.00 0.00 0.00 63 1015.2
20160207092940 33 90 2.0 5.0 0.00 0.00 0.00 63 1015.1
20160207092740 33 88 2.0 5.0 0.00 0.00 0.00 63 1015.3
20160207092640 32 87 2.0 5.0 0.00 0.00 0.00 63 1015.3
20160207092540 32 87 2.0 5.0 0.00 0.00 0.00 63 1015.5
20160207092440 33 87 2.0 5.0 0.00 0.00 0.00 63 1015.3
20160207092240 32 87 2.0 5.0 0.00 0.00 0.00 63 1015.4
20160207092040 33 87 3.0 5.0 0.00 0.00 0.00 63 1015.5
20160207091940 33 87 3.0 5.0 0.00 0.00 0.00 63 1015.6
20160207091840 33 82 3.0 6.0 0.00 0.00 0.00 63 1015.4
20160207091640 32 82 1.0 6.0 0.00 0.00 0.00 63 1015.6
20160207091540 32 79 2.0 6.0 0.00 0.00 0.00 63 1015.4
20160207091340 32 78 2.0 7.0 0.00 0.00 0.00 62 1015.7
20160207091040 33 72 2.0 7.0 0.00 0.00 0.00 62 1015.6
20160207090640 33 76 3.0 7.0 0.00 0.00 0.00 62 1015.7
20160207090540 33 78 4.0 7.0 0.00 0.00 0.00 62 1015.5
20160207090340 33 79 3.0 5.0 0.00 0.00 0.00 62 1015.7
20160207090040 33 86 2.0 4.0 0.00 0.00 0.00 63 1015.6
20160207085840 33 86 3.0 4.0 0.00 0.00 0.00 63 1015.9
20160207085740 33 85 3.0 4.0 0.00 0.00 0.00 63 1015.9
20160207085640 33 87 1.0 3.0 0.00 0.00 0.00 63 1015.8
20160207085440 32 87 2.0 3.0 0.00 0.00 0.00 62 1015.7
20160207085340 32 86 2.0 3.0 0.00 0.00 0.00 62 1015.9
20160207085240 33 86 2.0 4.0 0.00 0.00 0.00 62 1015.7
20160207085139 33 86 1.0 4.0 0.00 0.00 0.00 62 1015.7
20160207085039 33 86 2.0 4.0 0.00 0.00 0.00 62 1015.9
20160207084840 33 86 3.0 4.0 0.00 0.00 0.00 63 1015.7
20160207084740 33 87 3.0 4.0 0.00 0.00 0.00 63 1015.8
20160207084340 33 90 1.0 4.0 0.00 0.00 0.00 63 1015.9
20160207084240 33 90 3.0 4.0 0.00 0.00 0.00 63 1015.9
20160207084140 33 90 1.0 3.0 0.00 0.00 0.00 63 1015.9
20160207084040 33 90 1.0 3.0 0.00 0.00 0.00 63 1016.0
20160207083939 33 90 2.0 3.0 0.00 0.00 0.00 63 1016.0
20160207083840 33 90 1.0 3.0 0.00 0.00 0.00 63 1016.0
20160207083640 33 90 1.0 3.0 0.00 0.00 0.00 63 1016.0
20160207083439 33 90 1.0 3.0 0.00 0.00 0.00 63 1015.9
20160207083140 33 90 2.0 3.0 0.00 0.00 0.00 63 1016.0
20160207083040 33 90 2.0 3.0 0.00 0.00 0.00 63 1016.0
20160207082939 33 90 1.0 4.0 0.00 0.00 0.00 63 1016.0
20160207082440 33 90 2.0 4.0 0.00 0.00 0.00 61 1015.9
20160207082340 33 90 2.0 4.0 0.00 0.00 0.00 61 1016.1
20160207082239 33 90 1.0 4.0 0.00 0.00 0.00 61 1016.1
20160207082140 33 90 2.0 6.0 0.00 0.00 0.00 61 1016.1
20160207081940 33 90 2.0 6.0 0.00 0.00 0.00 61 1016.0
20160207081640 33 90 2.0 6.0 0.00 0.00 0.00 61 1016.0
20160207081540 33 90 2.0 6.0 0.00 0.00 0.00 61 1016.0
20160207081340 33 90 1.0 6.0 0.00 0.00 0.00 61 1016.1
20160207081239 34 90 2.0 6.0 0.00 0.00 0.00 61 1016.1
20160207081140 33 90 4.0 6.0 0.00 0.00 0.00 61 1016.0
20160207081040 34 90 2.0 4.0 0.00 0.00 0.00 61 1016.1
20160207080940 33 90 2.0 4.0 0.00 0.00 0.00 61 1016.1
20160207080839 33 90 2.0 4.0 0.00 0.00 0.00 61 1016.1
20160207080739 34 90 3.0 4.0 0.00 0.00 0.00 59 1016.1
20160207080540 34 90 3.0 4.0 0.00 0.00 0.00 59 1016.3
20160207080440 34 90 3.0 4.0 0.00 0.00 0.00 59 1016.1
20160207080140 34 90 3.0 4.0 0.00 0.00 0.00 59 1016.1
20160207080040 34 90 3.0 6.0 0.00 0.00 0.00 59 1016.1
20160207075940 34 90 2.0 6.0 0.00 0.00 0.00 59 1016.2
20160207075840 34 90 2.0 6.0 0.00 0.00 0.00 58 1016.1
20160207075740 34 90 2.0 6.0 0.00 0.00 0.00 58 1015.9
20160207075540 34 90 2.0 6.0 0.00 0.00 0.00 58 1016.2
20160207075339 34 90 2.0 6.0 0.00 0.00 0.00 57 1016.0
20160207075139 34 90 2.0 6.0 0.00 0.00 0.00 57 1016.2
20160207075040 34 90 4.0 6.0 0.00 0.00 0.00 57 1016.2
20160207074940 34 90 1.0 4.0 0.00 0.00 0.00 57 1016.3
20160207074740 34 90 1.0 4.0 0.00 0.00 0.00 57 1016.2
20160207074639 34 90 1.0 4.0 0.00 0.00 0.00 56 1016.2
20160207074440 34 90 2.0 4.0 0.00 0.00 0.00 56 1016.3
20160207074340 34 90 2.0 4.0 0.00 0.00 0.00 56 1016.4
20160207074240 34 90 2.0 4.0 0.00 0.00 0.00 56 1016.5
20160207074139 34 90 3.0 4.0 0.00 0.00 0.00 56 1016.2
20160207074040 34 90 2.0 4.0 0.00 0.00 0.00 56 1016.4
20160207073840 34 90 2.0 5.0 0.00 0.00 0.00 56 1016.3
20160207073640 35 90 2.0 5.0 0.00 0.00 0.00 56 1016.4
20160207073440 34 87 2.0 5.0 0.00 0.00 0.00 56 1016.3
20160207073240 35 86 2.0 5.0 0.00 0.00 0.00 57 1016.4
20160207072940 34 86 3.0 5.0 0.00 0.00 0.00 56 1016.4
20160207072539 35 86 3.0 5.0 0.00 0.00 0.00 56 1016.6
20160207072440 35 90 3.0 5.0 0.00 0.00 0.00 56 1016.3
20160207072240 35 90 3.0 5.0 0.00 0.00 0.00 56 1016.3
20160207072139 34 90 4.0 5.0 0.00 0.00 0.00 55 1016.5
20160207071940 34 90 2.0 5.0 0.00 0.00 0.00 55 1016.6
20160207071840 35 90 3.0 5.0 0.00 0.00 0.00 55 1016.4
20160207071740 35 90 3.0 5.0 0.00 0.00 0.00 55 1016.7
20160207071640 35 90 2.0 5.0 0.00 0.00 0.00 55 1016.7
20160207071539 35 90 2.0 5.0 0.00 0.00 0.00 55 1016.6
20160207071439 35 90 2.0 5.0 0.00 0.00 0.00 55 1016.5
20160207070939 35 90 3.0 4.0 0.00 0.00 0.00 55 1016.7
20160207070640 35 90 2.0 4.0 0.00 0.00 0.00 55 1016.7
20160207070240 35 90 2.0 5.0 0.00 0.00 0.00 55 1016.7
20160207070140 35 90 2.0 5.0 0.00 0.00 0.00 55 1016.7
20160207070040 35 90 2.0 5.0 0.00 0.00 0.00 55 1016.6
20160207065540 35 90 3.0 5.0 0.00 0.00 0.00 54 1016.7
20160207065339 35 90 1.0 5.0 0.00 0.00 0.00 54 1016.7
20160207064939 35 88 1.0 5.0 0.00 0.00 0.00 54 1016.7
20160207064839 35 88 2.0 5.0 0.00 0.00 0.00 54 1016.5
20160207064640 35 88 2.0 5.0 0.00 0.00 0.00 54 1016.8
20160207064240 36 90 2.0 5.0 0.00 0.00 0.00 52 1016.8
20160207064140 36 88 2.0 5.0 0.00 0.00 0.00 52 1016.6
20160207064040 36 85 1.0 5.0 0.00 0.00 0.00 52 1016.8
20160207063740 36 81 2.0 4.0 0.00 0.00 0.00 52 1016.8
20160207063540 36 81 1.0 4.0 0.00 0.00 0.00 52 1016.7
20160207063440 36 81 1.0 4.0 0.00 0.00 0.00 52 1016.9
20160207063340 36 77 2.0 4.0 0.00 0.00 0.00 52 1016.9
20160207063139 36 76 1.0 4.0 0.00 0.00 0.00 52 1017.0
20160207063040 36 79 2.0 4.0 0.00 0.00 0.00 52 1017.0
20160207062740 36 83 2.0 4.0 0.00 0.00 0.00 52 1016.8
20160207062639 36 83 2.0 4.0 0.00 0.00 0.00 52 1017.1
20160207062540 36 83 2.0 4.0 0.00 0.00 0.00 52 1017.1
20160207062340 36 87 3.0 4.0 0.00 0.00 0.00 51 1017.1
20160207062240 36 87 1.0 5.0 0.00 0.00 0.00 51 1017.0
20160207062139 36 87 2.0 5.0 0.00 0.00 0.00 51 1017.0
20160207062040 36 87 2.0 5.0 0.00 0.00 0.00 51 1017.0
20160207061940 36 87 2.0 5.0 0.00 0.00 0.00 51 1017.1
20160207061840 36 87 2.0 5.0 0.00 0.00 0.00 51 1017.1
20160207061640 36 83 2.0 5.0 0.00 0.00 0.00 51 1017.0
20160207061540 36 80 2.0 5.0 0.00 0.00 0.00 51 1017.1
20160207061239 36 82 2.0 5.0 0.00 0.00 0.00 51 1017.1
20160207061040 36 78 3.0 5.0 0.00 0.00 0.00 51 1017.2
20160207060540 37 76 3.0 5.0 0.00 0.00 0.00 51 1017.2
20160207060340 37 68 2.0 5.0 0.00 0.00 0.00 52 1017.2
20160207060239 36 64 2.0 5.0 0.00 0.00 0.00 52 1017.2
20160207060139 36 63 3.0 5.0 0.00 0.00 0.00 51 1017.2
20160207060040 36 63 1.0 5.0 0.00 0.00 0.00 52 1017.3
20160207055940 36 59 3.0 6.0 0.00 0.00 0.00 52 1017.3
20160207055839 36 56 3.0 6.0 0.00 0.00 0.00 52 1017.3
20160207055640 36 63 3.0 6.0 0.00 0.00 0.00 52 1017.2
20160207055540 36 64 3.0 6.0 0.00 0.00 0.00 52 1017.4
20160207055440 36 69 3.0 6.0 0.00 0.00 0.00 51 1017.2
20160207055340 36 70 3.0 6.0 0.00 0.00 0.00 51 1017.3
20160207055239 36 75 3.0 6.0 0.00 0.00 0.00 51 1017.3
20160207054940 36 82 3.0 6.0 0.00 0.00 0.00 51 1017.3
20160207054840 36 81 3.0 6.0 0.00 0.00 0.00 51 1017.3
20160207054640 36 78 3.0 6.0 0.00 0.00 0.00 51 1017.3
20160207054339 36 77 3.0 5.0 0.00 0.00 0.00 51 1017.3
20160207054240 36 76 2.0 4.0 0.00 0.00 0.00 51 1017.3
20160207054040 36 74 3.0 5.0 0.00 0.00 0.00 51 1017.3
20160207053940 36 69 3.0 5.0 0.00 0.00 0.00 51 1017.5
20160207053540 36 64 2.0 5.0 0.00 0.00 0.00 51 1017.4
20160207053340 36 59 3.0 5.0 0.00 0.00 0.00 51 1017.6
20160207053239 36 60 3.0 5.0 0.00 0.00 0.00 51 1017.5
20160207053040 36 61 2.0 5.0 0.00 0.00 0.00 51 1017.4
20160207052540 37 73 3.0 5.0 0.00 0.00 0.00 50 1017.5
20160207052440 37 77 3.0 5.0 0.00 0.00 0.00 50 1017.6
20160207052239 37 83 2.0 3.0 0.00 0.00 0.00 50 1017.4
20160207052140 36 83 2.0 4.0 0.00 0.00 0.00 50 1017.5
20160207051840 36 88 3.0 4.0 0.00 0.00 0.00 49 1017.7
20160207051639 37 90 1.0 4.0 0.00 0.00 0.00 49 1017.5
20160207051440 37 90 2.0 4.0 0.00 0.00 0.00 49 1017.6
20160207051039 37 90 2.0 4.0 0.00 0.00 0.00 48 1017.9
20160207050940 37 90 2.0 4.0 0.00 0.00 0.00 48 1017.6
20160207050840 37 90 2.0 4.0 0.00 0.00 0.00 48 1017.8
20160207050740 37 90 2.0 4.0 0.00 0.00 0.00 48 1017.8
20160207050639 37 90 2.0 5.0 0.00 0.00 0.00 48 1017.6
20160207050539 37 90 2.0 5.0 0.00 0.00 0.00 48 1017.7
20160207050440 37 87 2.0 5.0 0.00 0.00 0.00 48 1017.7
20160207050340 37 87 2.0 5.0 0.00 0.00 0.00 48 1017.6
20160207050240 38 87 1.0 5.0 0.00 0.00 0.00 51 1017.7
20160207050139 37 86 2.0 5.0 0.00 0.00 0.00 47 1017.7
20160207045840 37 83 1.0 5.0 0.00 0.00 0.00 51 1017.6
20160207045639 38 81 2.0 5.0 0.00 0.00 0.00 51 1017.8
20160207045539 38 77 2.0 5.0 0.00 0.00 0.00 51 1017.8
20160207045340 38 76 2.0 5.0 0.00 0.00 0.00 50 1017.8
20160207045240 38 76 2.0 5.0 0.00 0.00 0.00 50 1017.8
20160207045140 38 77 3.0 5.0 0.00 0.00 0.00 50 1017.8
20160207045039 38 80 3.0 4.0 0.00 0.00 0.00 50 1017.7
20160207044840 38 80 3.0 4.0 0.00 0.00 0.00 50 1017.8
20160207044740 38 79 3.0 4.0 0.00 0.00 0.00 50 1017.6
20160207044640 38 81 3.0 4.0 0.00 0.00 0.00 50 1017.7
20160207044539 38 82 2.0 3.0 0.00 0.00 0.00 50 1017.7
20160207044440 38 83 2.0 3.0 0.00 0.00 0.00 50 1017.7
20160207044340 38 87 2.0 3.0 0.00 0.00 0.00 50 1017.8
20160207044240 38 87 1.0 3.0 0.00 0.00 0.00 50 1017.6
20160207044039 38 83 2.0 3.0 0.00 0.00 0.00 50 1017.6
20160207043339 38 82 1.0 4.0 0.00 0.00 0.00 50 1017.8
20160207043040 38 86 1.0 4.0 0.00 0.00 0.00 50 1017.7
20160207042939 38 86 1.0 4.0 0.00 0.00 0.00 50 1018.1
20160207042839 38 86 1.0 4.0 0.00 0.00 0.00 50 1017.7
20160207042640 38 86 2.0 4.0 0.00 0.00 0.00 50 1017.8
20160207042539 38 86 2.0 4.0 0.00 0.00 0.00 50 1017.7
20160207042140 38 90 2.0 4.0 0.00 0.00 0.00 50 1017.8
20160207041740 38 90 2.0 4.0 0.00 0.00 0.00 49 1018.0
20160207041539 38 90 1.0 4.0 0.00 0.00 0.00 49 1018.0
20160207041340 38 90 2.0 4.0 0.00 0.00 0.00 49 1018.0
20160207041240 38 90 2.0 5.0 0.00 0.00 0.00 48 1017.9
20160207041140 39 90 1.0 5.0 0.00 0.00 0.00 48 1017.8
20160207041040 39 88 3.0 5.0 0.00 0.00 0.00 48 1017.9
20160207040939 39 83 1.0 5.0 0.00 0.00 0.00 48 1018.1
20160207040839 39 82 1.0 5.0 0.00 0.00 0.00 48 1018.0
20160207040640 39 71 2.0 5.0 0.00 0.00 0.00 48 1018.1
20160207040540 39 71 1.0 5.0 0.00 0.00 0.00 48 1017.9
20160207040439 39 67 2.0 5.0 0.00 0.00 0.00 47 1017.8
20160207040240 39 64 3.0 5.0 0.00 0.00 0.00 46 1018.1
20160207040040 40 62 3.0 5.0 0.00 0.00 0.00 46 1017.9
20160207035640 39 67 3.0 5.0 0.00 0.00 0.00 46 1018.0
20160207035540 39 66 3.0 5.0 0.00 0.00 0.00 46 1018.1
20160207035339 39 72 2.0 5.0 0.00 0.00 0.00 46 1018.0
20160207035040 40 72 3.0 5.0 0.00 0.00 0.00 46 1017.8
20160207034939 40 74 2.0 5.0 0.00 0.00 0.00 46 1018.0
20160207034740 40 79 3.0 5.0 0.00 0.00 0.00 46 1018.0
20160207034640 40 82 3.0 5.0 0.00 0.00 0.00 46 1018.0
20160207034339 40 85 3.0 3.0 0.00 0.00 0.00 47 1017.9
20160207034239 40 85 2.0 3.0 0.00 0.00 0.00 47 1018.0
20160207034140 39 88 2.0 3.0 0.00 0.00 0.00 47 1018.1
20160207034040 39 90 2.0 6.0 0.00 0.00 0.00 47 1018.1
20160207033839 39 78 1.0 6.0 0.00 0.00 0.00 47 1018.1
20160207033640 39 77 2.0 6.0 0.00 0.00 0.00 48 1018.2
20160207033239 39 80 0.0 6.0 0.00 0.00 0.00 48 1018.2
20160207033040 40 79 3.0 6.0 0.00 0.00 0.00 47 1018.1
20160207032940 39 82 3.0 5.0 0.00 0.00 0.00 47 1018.2
20160207032839 39 89 2.0 3.0 0.00 0.00 0.00 47 1018.1
20160207032540 39 90 1.0 3.0 0.00 0.00 0.00 48 1018.1
20160207032340 39 90 2.0 3.0 0.00 0.00 0.00 48 1018.1
20160207032239 39 90 1.0 3.0 0.00 0.00 0.00 47 1018.1
20160207032139 39 90 1.0 3.0 0.00 0.00 0.00 47 1018.1
20160207032040 39 90 1.0 3.0 0.00 0.00 0.00 47 1018.0
20160207031740 39 90 2.0 3.0 0.00 0.00 0.00 46 1018.2
20160207031640 39 90 1.0 3.0 0.00 0.00 0.00 48 1018.1
20160207031539 40 90 1.0 3.0 0.00 0.00 0.00 47 1018.0
20160207031440 39 90 2.0 3.0 0.00 0.00 0.00 47 1018.2
20160207031139 39 90 1.0 3.0 0.00 0.00 0.00 46 1018.1
20160207030939 40 90 1.0 3.0 0.00 0.00 0.00 46 1018.2
20160207030840 39 90 2.0 3.0 0.00 0.00 0.00 47 1018.2
20160207030740 40 90 1.0 3.0 0.00 0.00 0.00 47 1018.3
20160207030640 40 90 1.0 3.0 0.00 0.00 0.00 47 1018.4
20160207030540 39 90 2.0 3.0 0.00 0.00 0.00 47 1018.1
20160207030339 39 90 1.0 3.0 0.00 0.00 0.00 47 1018.3
20160207030039 39 90 1.0 3.0 0.00 0.00 0.00 48 1018.1
20160207025839 39 90 1.0 3.0 0.00 0.00 0.00 48 1018.3
20160207025640 39 90 2.0 3.0 0.00 0.00 0.00 48 1018.3
20160207025539 39 90 1.0 3.0 0.00 0.00 0.00 48 1018.6
20160207025240 39 90 1.0 3.0 0.00 0.00 0.00 46 1018.4
20160207025140 39 90 1.0 3.0 0.00 0.00 0.00 46 1018.3
20160207025039 39 90 1.0 3.0 0.00 0.00 0.00 47 1018.1
20160207024939 39 90 1.0 3.0 0.00 0.00 0.00 46 1018.2
20160207024740 40 90 2.0 3.0 0.00 0.00 0.00 46 1018.3
20160207024640 40 90 2.0 3.0 0.00 0.00 0.00 46 1018.5
20160207024539 40 90 1.0 3.0 0.00 0.00 0.00 46 1018.4
20160207024440 40 90 1.0 3.0 0.00 0.00 0.00 46 1018.2
20160207024340 40 90 2.0 3.0 0.00 0.00 0.00 46 1018.3
20160207024239 40 90 2.0 3.0 0.00 0.00 0.00 46 1018.3
20160207024139 40 90 1.0 3.0 0.00 0.00 0.00 46 1018.4
20160207024040 40 90 1.0 3.0 0.00 0.00 0.00 46 1018.4
20160207023840 40 90 2.0 3.0 0.00 0.00 0.00 46 1018.3
20160207023639 40 90 2.0 3.0 0.00 0.00 0.00 46 1018.4
20160207023539 40 90 1.0 3.0 0.00 0.00 0.00 46 1018.3
20160207023239 40 90 1.0 3.0 0.00 0.00 0.00 46 1018.3
20160207023139 40 90 1.0 3.0 0.00 0.00 0.00 46 1018.3
20160207022940 40 90 1.0 3.0 0.00 0.00 0.00 46 1018.3
20160207022840 40 90 1.0 3.0 0.00 0.00 0.00 46 1018.4
20160207022539 40 90 1.0 3.0 0.00 0.00 0.00 46 1018.3
20160207022440 40 90 1.0 3.0 0.00 0.00 0.00 46 1018.3
20160207022340 40 90 1.0 3.0 0.00 0.00 0.00 46 1018.5
20160207021940 40 90 1.0 3.0 0.00 0.00 0.00 46 1018.5
20160207021840 40 90 1.0 3.0 0.00 0.00 0.00 46 1018.4
20160207021639 40 90 1.0 3.0 0.00 0.00 0.00 45 1018.4
20160207021440 40 90 1.0 3.0 0.00 0.00 0.00 45 1018.5
20160207021340 40 90 1.0 3.0 0.00 0.00 0.00 45 1018.4
20160207021239 40 90 1.0 3.0 0.00 0.00 0.00 45 1018.4
20160207021139 41 90 1.0 3.0 0.00 0.00 0.00 45 1018.4
20160207020840 40 90 1.0 3.0 0.00 0.00 0.00 45 1018.4
20160207020739 40 90 2.0 3.0 0.00 0.00 0.00 45 1018.6
20160207020346 40 90 2.0 3.0 0.00 0.00 0.00 45 1018.4
20160207020239 40 90 2.0 3.0 0.00 0.00 0.00 45 1018.5
20160207020140 40 90 2.0 3.0 0.00 0.00 0.00 45 1018.6